Location: Les Thiberg�res
(47.8554°N, 1.0978°W)
Time: 09:09:49
(UTC+00:00)

Cosmos 1023 Rocket - Pass Details

Date: 17 February 2020
Orbit: 737 x 772 km, 74.1° (Epoch: 09 April)

Event Time Altitude Azimuth Distance (km) Brightness Sun altitude
Rises 06:13:16 0° 208° (SSW) 3,229 7.5 -9.8°
Reaches altitude 10° 06:15:39 10° 211° (SSW) 2,309 6.8 -9.4°
Maximum altitude 06:20:53 69° 294° (WNW) 827 4.5 -8.6°
Drops below altitude 10° 06:26:10 10° 19° (NNE) 2,325 7.1 -7.7°
Sets 06:28:34 0° 22° (NNE) 3,254 7.9 -7.3°
